Weather History for MZBZ - May, 2014

Change the Weather History Date:

Thursday, May 15, 2014

  Actual Average Record
Temperature  
Mean Temperature 80 °F -  
Max Temperature 86 °F 90 °F 91 °F (2007)
Min Temperature 73 °F 76 °F 73 °F (2001)
Cooling Degree Days 14    
Growing Degree Days 30 (Base 50)    
Moisture  
Dew Point 75 °F    
Average Humidity 81    
Maximum Humidity 94    
Minimum Humidity 66    
Precipitation  
Precipitation 0.12 in 0.24 in - ()
Sea Level Pressure  
Sea Level Pressure 29.97 in    
Wind  
Wind Speed 4 mph ()    
Max Wind Speed 8 mph    
Max Gust Speed -    
Visibility 8.4 miles    
Events Rain    
Averages and records for this station are not official NWS values.
T = Trace of Precipitation, MM = Missing Value Source: Averaged Metar Reports

Daily Weather History Graph

Daily Weather History Graph

Search for Another Location

Airport or City:

Trip Planner

Search our weather history database for the weather conditions in past years. The results will help you decide how hot, cold, wet, or windy it might be!

Date:

Astronomy

May. 15, 2014 Rise Set
Actual Time 5:21 AM CST 6:18 PM CST
Civil Twilight 4:57 AM CST 6:41 PM CST
Nautical Twilight 4:30 AM CST 7:09 PM CST
Astronomical Twilight 4:02 AM CST 7:37 PM CST
Moon 7:26 PM CST (5/15) 6:05 AM CST (5/15)
Length of Visible Light 13h 43m
Length of Day
12h 57m
Full, 99% of the Moon is Illuminated
May 15
Full
May 21
Last Quarter
May 28
New
Jun 5
First Quarter
Jun 12
Full

Hourly Weather History & Observations

Time (CST) Temp. Heat Index Dew Point Humidity Pressure Visibility Wind Dir Wind Speed Gust Speed Precip Events Conditions
12:00 AM 78 °F - 76 °F 93% 29.97 in 12 mi Calm Calm - -   Scattered Clouds
3:00 AM 77 °F - 75 °F 90% 29.94 in 12 mi NNW 3.5 mph - -  
5:00 AM 75.2 °F - 71.6 °F 89% 29.95 in 6.2 mi West 3.5 mph - N/A Rain Light Rain Showers
6:00 AM 74 °F - 72 °F 92% 29.97 in 11 mi NW 3.5 mph - - Rain Light Rain Showers
6:00 AM 75.2 °F - 71.6 °F 89% 29.97 in 6.2 mi NW 3.5 mph - N/A Rain Light Rain Showers
7:00 AM 75.2 °F - 73.4 °F 94% 29.98 in 6.2 mi NNW 6.9 mph - N/A Rain Light Rain Showers
8:00 AM 77.0 °F - 75.2 °F 94% 30.00 in 6.2 mi NNW 6.9 mph - N/A   Mostly Cloudy
9:00 AM 79 °F - 75 °F 83% 30.02 in 14 mi NNW 3.5 mph - -   Partly Cloudy
9:00 AM 78.8 °F - 75.2 °F 89% 30.01 in 6.2 mi NNW 3.5 mph - N/A   Mostly Cloudy
10:00 AM 82.4 °F 90.9 °F 77.0 °F 84% 30.02 in 6.2 mi NNE 4.6 mph - N/A   Partly Cloudy
11:00 AM 84.2 °F 94.1 °F 77.0 °F 79% 30.01 in 6.2 mi ENE 3.5 mph - N/A   Scattered Clouds
12:00 PM 85 °F - 76 °F 68% 30.00 in 14 mi ENE 6.9 mph - -   Partly Cloudy
12:00 PM 84.2 °F 92.3 °F 75.2 °F 74% 29.99 in 6.2 mi ENE 6.9 mph - N/A   Partly Cloudy
1:00 PM 86.0 °F 95.1 °F 75.2 °F 70% 29.98 in 5.0 mi NE 8.1 mph - N/A   Scattered Clouds
2:00 PM 84.2 °F 92.3 °F 75.2 °F 74% 29.96 in 6.2 mi NE 6.9 mph - N/A   Scattered Clouds
3:00 PM 84 °F - 74 °F 66% 29.94 in 12 mi East 6.9 mph - -   Mostly Cloudy
3:00 PM 84.2 °F 92.3 °F 75.2 °F 74% 29.94 in 6.2 mi East 6.9 mph - N/A   Scattered Clouds
4:00 PM 86.0 °F 95.1 °F 75.2 °F 70% 29.92 in 6.2 mi East 8.1 mph - N/A   Scattered Clouds
5:00 PM 86.0 °F 95.1 °F 75.2 °F 70% 29.93 in 6.2 mi East 6.9 mph - N/A   Scattered Clouds
6:00 PM 82 °F - 74 °F 72% 29.95 in 12 mi East 5.8 mph - -   Partly Cloudy
6:00 PM 82.4 °F 89.5 °F 75.2 °F 79% 29.94 in 6.2 mi East 5.8 mph - N/A   Partly Cloudy
9:00 PM 79 °F - 75 °F 83% 30.03 in 12 mi NW 4.6 mph - -   Mostly Cloudy